SCP
0 0 0 0 0 0 0 0 0 0 0 0 0 0 0 0 0 0 0 0 0 0 0 0 0 0 0 0 0 0 0 0 0 0 0 0 0 0 0 0 0 0 0 0
0 0 0 0 0 0 0 0 0 0 0 0 0 0 0 0 0 0 0 0 0 0 0 0 0 0 0 0 0 0 0 0 0 0 0 0 0 0 0 0 0 0 0 0
0 0 0 0 0 0 0 0 0 0 0 0 0 0 0 0 0 0 0 0 0 0 0 0 0 0 0 0 0 0 0 0 0 0 0 0 0 0 0 0 0 0 0 0
0 0 0 0 0 0 0 0 0 0 0 0 0 0 0 0 0 0 0 0 0 0 0 0 0 0 0 0 0 0 0 0 0 0 0 0 0 0 0 0 0 0 0 0
0 0 0 0 0 0 0 0 0 0 0 0 0 0 0 0 0 0 0 0 0 0 0 0 0 0 0 0 0 0 0 0 0 0 0 0 0 0 0 0 0 0 0 0
0 0 0 0 0 0 0 0 0 0 0 0 0 0 0 0 0 0 0 0 0 0 0 0 0 0 0 0 0 0 0 0 0 0 0 0 0 0 0 0 0 0 0 0
0 0 0 0 0 0 0 0 0 0 0 0 0 0 0 0 0 0 0 0 0 0 0 0 0 0 0 0 0 0 0 0 0 0 0 0 0 0 0 0 0 0 0 0
0 0 0 0 0 0 0 0 0 0 0 0 0 0 0 0 0 0 0 0 0 0 0 0 0 0 0 0 0 0 0 0 0 0 0 0 0 0 0 0 0 0 0 0
0 0 0 0 0 0 0 0 0 0 0 0 0 0 0 0 0 0 0 0 0 0 0 0 0 0 0 0 0 0 0 0 0 0 0 0 0 0 0 0 0 0 0 0
0 0 0 0 0 0 0 0 0 0 0 0 0 0 0 0 0 0 0 0 0 0 0 0 0 0 0 0 0 0 0 0 0 0 0 0 0 0 0 0 0 0 0 0
0 0 0 0 0 0 0 0 0 0 0 0 0 0 0 0 0 0 0 0 0 0 0 0 0 0 0 0 0 0 0 0 0 0 0 0 0 0 0 0 0 0 0 0
0 0 0 0 0 0 0 0 0 0 0 0 0 0 0 0 0 0 0 0 0 0 0 0 0 0 0 0 0 0 0 0 0 0 0 0 0 0 0 0 0 0 0 0
0 0 0 0 0 0 0 0 0 0 0 0 0 0 0 0 0 0 0 0 0 0 0 0 0 0 0 0 0 0 0 0 0 0 0 0 0 0 0 0 0 0 0 0
0 0 0 0 0 0 0 0 0 0 0 0 0 0 0 0 0 0 0 0 0 0 0 0 0 0 0 0 0 0 0 0 0 0 0 0 0 0 0 0 0 0 0 0
0 0 0 0 0 0 0 0 0 0 0 0 0 0 0 0 0 0 0 0 0 0 0 0 0 0 0 0 0 0 0 0 0 0 0 0 0 0 0 0 0 0 0 0
0 0 0 -0 -0 -0 -0 0 0 0 0 0 0 0 0 0 0 0 0 0 0 0 0 0 0 0 0 0 0 0 0 0 0 0 0 0 0 0 0 0 0 0 0 0
0 0 0 0 -0 -0 -0 0 0 0 0 0 0 0 0 0 0 0 0 0 0 0 0 0 0 0 0 0 0 0 0 0 0 0 0 0 0 0 0 0 0 0 0 0
0 0 0 0 0 0 0 0 0 0 0 0 0 0 0 0 0 0 0 0 0 0 0 0 0 0 0 0 0 0 0 0 0 0 0 0 0 0 0 0 0 0 0 0
0 0 0 0 0 0 0 0 0 0 0 0 0 0 0 0 0 0 0 0 0 0 0 0 0 0 0 0 0 0 0 0 0 0 0 0 0 0 0 0 0 0 0 0
0 0 0 0 0 0 0 0 0 0 0 0 0 0 0 0 0 0 0 0 0 0 0 0 0 0 0 0 0 0 0 0 0 0 0 0 0 0 0 0 0 0 0 0
0 0 0 0 0 0 0 0 0 0 0 0 0 0 0 0 0 0 0 0 0 0 0 0 0 0 0 0 0 0 0 0 0 0 0 0 0 0 0 0 0 0 0 0
0 0 0 0 0 0 0 0 0 0 0 0 0 0 0 0 0 0 0 0 0 0 0 0 0 0 0 0 0 0 0 0 0 0 0 0 0 0 0 0 0 0 0 0
0 0 0 0 0 0 0 0 0 0 0 0 0 0 0 0 0 0 0 0 0 0 0 0 0 0 0 0 0 0 0 0 0 0 0 0 0 0 0 0 0 0 0 0
0 0 0 0 0 0 0 0 0 0 0 0 0 0 0 0 0 0 0 0 0 0 0 0 0 0 0 0 0 0 0 0 0 0 0 0 0 0 0 0 0 0 0 0
0 0 0 0 0 0 0 0 0 0 0 0 0 0 0 0 0 0 0 0 0 0 0 0 0 0 0 0 0 0 0 0 0 0 0 0 0 0 0 0 0 0 0 0
0 0 0 0 0 0 0 0 0 0 0 0 0 0 0 0 0 0 0 0 0 0 0 0 0 0 0 0 0 0 0 0 0 0 0 0 0 0 0 0 0 0 0 0
0 0 0 0 0 0 0 0 0 0 0 0 0 0 0 0 0 0 0 0 0 0 0 0 0 0 0 0 0 0 0 0 0 0 0 0 0 0 0 0 0 0 0 0
Wind_Speed
8 8 6 8 9 8 10 10 10 10 11 13 10 9 9 9 9 8 8 8 8 8 7 7 6 6 5 5 5 5 4 4 5 5 4 4 5 5 5 5 6 6 6 7
6 6 7 10 11 11 12 12 13 14 15 10 8 7 8 8 8 8 9 9 9 9 9 8 7 6 6 6 5 5 5 5 5 4 4 4 4 4 5 5 5 5 6 7
5 4 7 9 8 10 8 8 8 11 9 6 7 7 8 8 7 7 8 9 9 9 8 8 7 7 6 6 6 5 5 5 5 4 4 4 3 3 4 5 5 5 6 6
4 4 8 2 1 4 6 8 9 9 9 8 8 9 8 7 6 7 8 9 9 8 8 8 8 7 6 6 5 5 5 5 5 5 4 4 3 3 3 3 4 4 5 6
3 5 9 4 1 2 4 7 5 8 9 8 7 7 6 4 5 7 8 8 8 8 8 8 7 7 6 6 5 5 5 6 6 5 5 4 3 3 3 3 3 3 4 5
4 6 7 1 2 0 3 5 0 3 6 7 5 5 5 5 7 8 8 7 7 8 8 7 7 7 6 6 5 5 6 6 6 5 5 5 4 3 2 2 2 2 2 3
7 7 8 1 2 2 4 3 2 3 5 5 5 6 8 9 8 8 8 8 7 7 7 7 7 6 6 6 6 7 7 6 6 5 5 5 4 3 2 2 1 2 2 2
5 7 7 3 4 4 4 3 3 4 5 6 7 8 9 9 9 8 8 8 7 7 7 7 7 6 6 6 7 7 6 6 5 5 4 3 3 2 1 1 2 2 2 2
7 6 2 4 5 4 3 4 5 5 6 6 7 8 8 8 8 8 7 7 7 7 8 7 7 6 7 7 7 7 5 5 5 5 4 3 2 2 1 1 1 1 2 2
7 9 7 7 7 6 6 6 7 6 6 7 8 9 8 8 8 7 7 6 6 6 7 7 7 6 6 7 6 5 5 5 4 4 4 3 2 2 1 1 1 2 2 2
9 9 7 6 8 8 7 7 7 7 7 7 8 8 8 7 7 6 6 6 5 5 6 7 7 7 7 6 6 5 5 4 4 3 3 3 2 2 2 2 2 2 2 2
7 5 6 7 5 5 6 7 7 7 7 6 7 8 7 7 6 6 6 6 6 6 6 7 7 7 7 6 5 4 4 4 3 3 2 2 2 2 3 2 3 3 2 2
6 5 6 8 7 6 6 7 6 6 6 6 6 6 6 6 6 6 6 6 6 7 7 7 7 7 7 6 5 4 4 4 3 3 2 2 2 2 2 3 3 3 2 2
7 5 7 6 7 6 6 6 5 5 5 5 5 5 5 6 6 6 6 6 6 6 6 6 6 6 6 6 5 4 4 3 3 3 2 2 2 2 2 2 2 2 2 3
6 6 7 7 6 5 4 4 4 5 5 5 4 4 5 5 6 6 6 6 6 6 6 6 6 7 6 5 5 4 3 3 2 2 2 2 2 2 2 2 2 2 2 3
6 5 6 6 6 6 5 4 5 6 6 6 5 5 5 5 6 5 5 5 5 6 6 6 6 6 6 5 4 3 3 4 3 2 2 2 2 2 2 1 2 2 2 3
4 5 5 5 6 6 5 6 6 6 6 6 6 6 5 4 5 5 5 5 5 5 6 6 6 6 5 4 4 3 2 3 3 2 2 2 2 1 1 1 1 1 2 3
5 6 6 6 6 6 6 6 6 6 6 6 5 4 4 4 5 6 5 5 4 5 5 5 5 5 4 4 3 2 2 2 2 2 2 2 2 2 1 1 1 1 2 2
5 5 5 6 5 5 5 6 5 5 5 5 4 5 5 5 5 5 4 4 4 5 5 5 6 4 4 4 3 2 2 2 2 1 1 2 2 2 1 1 1 1 2 2
5 5 5 5 4 4 4 5 5 4 4 4 4 4 5 5 4 4 4 4 4 4 4 4 4 3 3 3 3 1 1 1 1 1 1 1 1 2 2 2 2 2 1 1
5 5 5 5 5 4 4 4 4 4 4 4 4 4 5 5 4 3 4 4 4 4 4 4 3 3 3 2 2 1 1 1 1 1 1 1 1 2 2 2 2 2 2 2
5 5 5 5 4 4 4 4 4 4 4 4 4 4 4 4 4 4 4 4 4 5 3 2 2 3 3 2 1 1 1 1 2 2 2 2 2 2 2 2 2 2 2 2
5 5 5 4 5 5 4 4 4 4 4 4 4 4 4 4 3 3 4 3 3 4 3 2 3 4 3 1 1 1 2 2 2 2 2 2 2 2 2 2 2 2 2 2
4 4 4 4 3 3 4 4 4 3 4 4 4 4 4 3 3 3 3 4 5 4 3 3 4 4 3 1 1 1 2 2 2 2 2 2 2 2 3 3 3 2 2 3
4 4 3 3 3 3 4 4 4 3 3 3 3 3 3 2 3 3 3 3 4 4 2 3 4 4 2 1 2 2 2 2 2 2 2 2 2 2 3 3 3 3 3 3
3 3 3 3 3 3 3 2 2 3 3 3 3 2 2 2 2 2 2 3 3 3 3 2 2 2 2 2 2 2 2 3 3 2 2 3 3 3 3 3 4 3 3 3
3 3 3 3 3 2 2 2 3 3 3 3 3 3 2 2 2 2 2 2 2 2 2 2 2 2 2 2 2 2 2 2 2 2 3 3 3 3 3 3 3 3 3 3
Wind_Direction
268 282 276 263 255 236 226 236 252 267 271 286 303 310 313 314 316 317 320 324 323 321 319 316 314 314 312 310 311 305 289 277 274 268 261 260 251 246 228 218 217 210 208 208
270 267 272 271 258 247 245 247 253 268 277 288 301 307 307 312 316 316 318 320 322 322 319 316 314 312 310 309 309 305 295 288 286 280 269 262 255 248 226 215 212 209 210 208
270 298 286 265 246 230 235 239 239 253 272 305 303 303 306 310 310 310 312 315 317 316 314 316 314 309 305 304 301 295 291 291 290 283 277 269 255 251 235 216 210 212 215 212
278 285 255 285 59 228 239 257 245 259 282 295 298 302 295 295 298 306 309 312 313 313 312 312 312 310 305 301 297 293 291 292 293 288 280 275 255 247 252 239 220 215 214 213
247 264 273 273 225 225 245 276 248 255 278 296 310 295 284 294 300 300 304 305 305 306 306 306 310 313 310 306 304 298 296 296 294 289 283 274 261 248 245 244 233 225 214 202
230 252 261 319 90 211 240 268 268 260 286 309 313 293 315 330 310 303 307 308 308 307 307 308 312 313 308 306 306 301 298 297 292 285 280 275 272 263 253 244 238 198 188 198
233 248 268 307 138 188 244 322 356 285 291 296 281 288 313 316 310 306 309 313 315 313 310 310 312 309 303 305 304 303 302 297 295 290 283 277 279 274 256 239 217 179 184 200
210 228 252 136 156 213 284 332 302 296 292 285 286 296 303 306 308 311 313 316 318 315 313 315 317 311 305 305 306 307 303 301 301 298 293 283 280 281 263 230 198 181 185 199
217 237 318 189 230 262 298 288 289 289 288 283 286 291 297 301 303 306 309 313 315 313 312 314 316 313 305 307 310 307 308 309 307 304 299 293 283 275 262 235 212 197 193 203
257 262 264 258 259 263 262 265 277 281 282 278 279 288 292 293 296 299 305 310 312 311 311 314 318 313 305 309 312 310 311 312 313 309 309 305 300 281 272 261 234 216 215 218
258 274 287 264 252 257 261 266 273 277 275 274 278 285 288 291 293 297 302 306 308 308 309 312 319 320 320 319 317 314 310 313 315 310 311 313 310 300 281 281 286 252 230 221
250 256 259 281 285 268 264 271 274 278 282 280 275 280 289 291 293 298 301 307 309 310 310 314 318 320 323 323 319 313 308 312 314 314 316 321 326 332 337 313 331 314 293 269
262 280 273 281 284 276 273 278 278 272 273 282 282 280 285 289 295 300 303 306 307 309 311 314 316 319 325 327 324 314 307 313 315 315 320 324 325 325 331 346 347 326 320 294
259 269 274 272 276 282 280 281 284 282 279 279 284 288 288 291 296 299 300 303 305 307 310 313 315 319 325 326 323 318 311 313 314 316 320 321 322 324 323 326 341 350 347 337
256 256 265 281 287 286 287 288 287 287 293 293 290 287 287 288 291 296 303 306 306 306 310 314 315 318 326 324 322 322 323 325 323 324 328 331 337 343 344 344 343 347 360 0
284 278 271 275 281 287 288 284 282 286 291 292 291 288 285 284 289 297 303 303 301 302 307 310 309 314 322 322 322 322 325 337 336 336 339 344 351 352 352 353 350 355 0 354
275 281 282 282 284 285 280 274 273 279 284 285 287 291 292 292 294 295 297 295 288 290 298 301 304 314 320 322 322 322 327 335 341 342 345 344 345 344 341 349 352 353 354 358
263 270 269 270 275 279 281 280 276 275 277 282 289 289 286 284 284 289 295 299 298 298 301 302 305 312 318 323 320 321 328 333 342 345 343 346 344 339 338 345 345 339 344 354
289 282 282 281 278 275 277 280 281 280 281 281 279 276 277 277 280 285 293 296 296 298 306 307 311 313 313 316 317 314 327 331 338 339 337 338 337 338 337 337 330 333 340 346
305 301 296 293 290 281 282 288 289 287 285 280 276 276 279 282 284 283 279 273 276 288 300 305 304 303 303 302 307 303 313 316 317 319 325 328 326 328 330 326 320 324 330 331
306 304 299 295 294 290 285 286 285 287 291 284 274 275 282 289 288 279 274 280 292 295 294 299 302 302 299 307 301 296 297 300 302 302 305 307 310 313 315 315 312 312 315 316
301 299 297 296 295 297 299 295 290 288 291 289 285 284 286 290 290 280 265 272 295 305 301 297 298 303 311 312 297 296 291 287 287 289 291 294 294 297 300 304 301 301 300 300
293 289 289 292 294 299 305 301 292 286 285 287 286 284 282 284 285 283 288 291 295 301 300 297 308 314 322 314 294 282 280 276 276 278 281 284 286 285 284 287 288 291 289 289
291 290 290 294 296 296 301 305 299 291 287 287 285 282 281 285 283 273 280 298 307 306 297 305 314 320 326 320 303 291 283 280 277 276 276 276 277 279 280 281 283 284 283 283
290 289 288 289 287 287 293 303 304 301 301 299 302 300 288 279 282 296 300 301 308 312 305 310 322 329 323 307 302 295 287 280 277 275 273 274 274 274 275 276 276 279 281 279
289 289 286 282 282 287 292 295 298 305 309 309 313 317 312 304 298 301 304 311 317 320 318 315 317 318 308 305 302 301 297 295 294 290 284 279 277 276 276 278 279 275 274 274
289 288 289 292 292 291 293 291 292 297 299 299 303 313 316 317 319 321 320 319 321 320 317 319 318 314 311 309 306 305 302 300 296 292 288 283 281 278 278 276 275 274 270 265